EW5712 Weather Reports


Display with metric or nautical units.
time (UTC)temp
F
wind
direction
speed
MPH
gust
MPH
rain 1hr
in
rain 24hr
in
rain mn
in
humidity
%
barometer
mb
20260506073247 61 205 0.0 0.0 0.00 0.01 0.00 64 1006.3
20260506072214 61 205 0.0 0.0 0.00 0.01 0.00 65 1006.4
20260506071200 61 205 0.0 0.0 0.00 0.01 0.00 67 1006.5
20260506060119 60 205 0.0 0.0 0.00 0.01 0.00 71 1007.0
20260506051152 62 205 0.0 0.0 0.00 0.01 0.00 67 1007.1
20260506050149 62 205 0.0 0.0 0.00 0.01 0.00 66 1007.2
20260506044144 63 205 0.0 0.0 0.00 0.01 0.00 65 1007.2
20260506043125 64 205 0.0 0.0 0.00 0.01 0.00 64 1007.3
20260506042126 64 205 0.0 0.0 0.00 0.01 0.01 63 1007.4
20260506040131 65 205 0.0 0.0 0.00 0.01 0.01 60 1007.2
20260506035136 66 205 0.0 0.0 0.00 0.01 0.01 59 1007.2
20260506034139 66 205 0.0 0.0 0.00 0.01 0.01 59 1007.2
20260506033121 67 205 0.0 0.0 0.00 0.01 0.01 58 1007.1
20260506032112 67 205 0.0 0.0 0.00 0.01 0.01 57 1007.1
20260506031111 68 205 0.0 0.0 0.00 0.01 0.01 56 1007.0
20260506030108 68 205 0.0 0.0 0.00 0.01 0.01 56 1007.2
20260506025118 69 205 0.0 0.0 0.00 0.01 0.01 54 1007.2
20260506024051 69 205 0.0 0.0 0.00 0.01 0.01 54 1007.2
20260506023108 70 205 0.0 0.0 0.00 0.01 0.01 53 1007.2
20260506022115 70 205 0.0 0.0 0.00 0.01 0.01 53 1007.1
20260506021110 70 205 0.0 0.0 0.00 0.01 0.01 51 1007.0
20260506015054 71 205 0.0 0.0 0.00 0.01 0.01 50 1006.7
20260506013059 72 205 0.0 0.0 0.00 0.01 0.01 50 1006.5
20260506011054 72 222 0.0 0.0 0.00 0.01 0.01 48 1006.3
20260506010047 73 222 0.0 0.0 0.00 0.01 0.01 47 1006.4
20260506005039 73 222 0.0 0.0 0.00 0.01 0.01 49 1006.3
20260506004050 73 222 0.0 0.0 0.00 0.01 0.01 48 1006.2
20260506003055 73 222 0.0 0.0 0.00 0.01 0.01 48 1006.1
20260505235107 73 222 0.0 0.0 0.00 0.01 0.01 49 1005.9
20260505234110 73 209 0.0 0.0 0.00 0.01 0.01 50 1005.9
20260505233121 74 208 0.0 0.0 0.00 0.01 0.01 50 1005.9
20260505232121 74 207 0.0 0.0 0.00 0.01 0.01 49 1005.8
20260505231128 74 207 0.0 0.0 0.00 0.01 0.01 48 1005.6
20260505230122 74 204 0.0 0.0 0.00 0.01 0.01 48 1005.5
20260505225132 74 314 0.0 0.0 0.00 0.01 0.01 48 1005.5
20260505224129 74 170 0.0 0.0 0.00 0.01 0.01 48 1005.7
20260505222112 75 117 0.0 0.0 0.00 0.01 0.01 46 1005.6
20260505194951 80 182 0.0 0.0 0.00 0.01 0.01 32 1005.2
20260505193932 81 327 0.0 0.0 0.00 0.01 0.01 31 1005.3
20260505192912 81 161 0.0 0.0 0.00 0.01 0.01 32 1005.5
20260505191919 82 322 3.0 12.0 0.00 0.01 0.01 32 1005.9
20260505185938 81 326 0.0 0.0 0.00 0.01 0.01 34 1005.9
20260505184937 81 331 0.0 0.0 0.00 0.01 0.01 34 1006.1
20260505181923 81 164 0.0 0.0 0.00 0.01 0.01 36 1006.6
20260505180915 81 302 0.0 0.0 0.00 0.01 0.01 36 1006.3
20260505175913 80 305 0.0 0.0 0.00 0.01 0.01 36 1006.4
20260505173913 80 148 0.0 0.0 0.00 0.01 0.01 39 1006.6
20260505172914 80 138 0.0 0.0 0.00 0.01 0.01 39 1006.5
20260505171912 80 308 0.0 0.0 0.00 0.01 0.01 40 1006.8
20260505170909 80 323 0.0 7.0 0.00 0.01 0.01 40 1006.9
20260505164929 79 175 0.0 8.0 0.01 0.01 0.01 42 1007.1
20260505162858 78 322 1.0 15.0 0.01 0.01 0.01 42 1007.2
20260505161847 78 165 0.0 15.0 0.01 0.01 0.01 42 1007.5
20260505160850 77 176 0.0 1.0 0.01 0.01 0.01 44 1007.4
20260505152937 75 321 0.0 0.0 0.00 0.00 0.00 50 1007.7
20260505151923 74 279 0.0 0.0 0.00 0.00 0.00 49 1007.7
20260505124936 55 109 0.0 0.0 0.00 0.00 0.00 86 1008.2
20260505123948 54 109 0.0 0.0 0.00 0.00 0.00 86 1008.1
20260505122950 53 109 0.0 0.0 0.00 0.00 0.00 85 1008.4
20260505121953 53 109 0.0 0.0 0.00 0.00 0.00 85 1008.4
20260505113906 52 109 0.0 0.0 0.00 0.00 0.00 86 1008.1
20260505112914 51 109 0.0 0.0 0.00 0.00 0.00 87 1008.0
20260505111920 52 109 0.0 0.0 0.00 0.00 0.00 87 1008.0
20260505110923 52 109 0.0 0.0 0.00 0.00 0.00 87 1007.9
20260505101916 52 109 0.0 0.0 0.00 0.00 0.00 86 1007.5
20260505100923 52 109 0.0 0.0 0.00 0.00 0.00 86 1007.4
20260505095854 53 109 0.0 0.0 0.00 0.00 0.00 85 1007.2
20260505093905 53 109 0.0 0.0 0.00 0.00 0.00 85 1007.3
20260505092923 53 109 0.0 0.0 0.00 0.00 0.00 84 1007.2
20260505090900 54 109 0.0 0.0 0.00 0.00 0.00 82 1007.7
20260505085831 54 109 0.0 0.0 0.00 0.00 0.00 79 1007.6
20260505083857 55 132 0.0 0.0 0.00 0.00 0.00 68 1007.4
20260505082852 56 132 0.0 0.0 0.00 0.00 0.00 67 1007.4
20260505081858 56 132 0.0 0.0 0.00 0.00 0.00 66 1007.1